ECHOSTAR 23 (42070 NORAD) Tracking and Keplerian Element Data

This shows tracking and keplerian element data for the satellite.

Feedback or suggestion? Click here.




ElementValue
Catalog42070
NameECHOSTAR 23
Epoch Orbit739
Epoch Day77.48684115
Epoch Year2019
RAAN164.5904
Inclination0.0269
Eccentricity0.0002009
Argument of Perigee195.231
Mean Anonmoly306.2953
Mean Motion1.00269001
Decay Rate-2.96E-06
L11 42070U 17014A 19077.48684115 -.00000296 00000-0 00000-0 0 9995
L22 42070 0.0269 164.5904 0002009 195.2310 306.2953 1.00269001 7399

Live tracking and technical data element details for ECHOSTAR 23 (NORAD 42070). ECHOSTAR 23 can be tracked NOW for your location showing map with azimuth and elevation plus other details from your city location.

Track the satellite on the map from your city or location and see movement details for azimuth, elevation, latitude, longitude, range, height, and movement on the map or in text.







IsCatalogInMostPopularTable: catalog: 42070, numindb: 240
Update: records affected: 1



GetName: 42070 ECHOSTAR 23

Hit Count: updated at: Wed, 20 Mar 2019 05:14:26 GMT